SL-8 DEB, 22842

Orbit data source: Space-Track

SL-8 DEB, 22842 is space debris in LEO originally from a launch on Tue, 12 Feb 1991 UTC launched from the Plesetsk Missile And Space Complex (PKMTR). Debris objects in space refer to the collection of defunct objects orbiting the Earth. Examples of debris include non-operational satellites, rocket bodies, and fragments generated from explosions, collisions, or faulty payload assembly.

Loading next visibility...
Identifier
22842, 1991-009CM
Orbit
LEO
Country
Flag of CISCIS
Related business
Manufacturer
Unknown
Mission
Spacecraft
Bus & Motor
Unknown
Mass
Unknown
Launch date (UTC)
1991-02-12 (35 years ago)
Launch vehicle
Unknown
Launch site
Plesetsk Missile And Space Complex (PKMTR)
Object type
Payload
Rocket body
Debris
Shape & HBR
Unknown shape, 0.1 m
Radar Cross Section
Medium (>0.1 m² and <1 m²)

Expand to show TLE details & history
Last TLE update: 3 days ago

TLE from 3 days ago
0 SL-8 DEB
1 22842U 91009CM  26171.25869764  .00000145  00000-0  12238-2 0  9999
2 22842  73.8827 261.8042 0137700 281.9877 104.3945 12.36585554590552
Epoch: 2026-06-20T06:12Z
TLE epoch observation values (Epoch: 2026-06-20T06:12:31.476Z)
Latitude
26.75694°
Longitude
-91.46643°
Altitude
1,552.306 km
Speed
7.08 km/s
True Right ascension
18h 00m 33s
True Declination
26° 37' 58"
Sunlit
Object was in full shadow at epoch
Visualization orbit readout
Latitude
Unknown
Longitude
Unknown
Altitude
Unknown
Speed
Unknown
Apparent Right ascension
Unknown
Apparent Declination
Unknown
Sunlit
N/A
Visualization observer readout
Local Sidereal Time
05:19:25
Azimuth
Unknown
Elevation
Unknown
Doppler factor
Unknown
Orbital elements
Apogee altitude
1,627.715 km
Perigee altitude
1,410.229 km
Semi-major axis
7,897.109 km
Eccentricity
0.01377
Inclination
73.8827°
RAAN
261.8042°
Arg. of periapsis
281.9877°
True anomaly
105.9162°
Mean anomaly
104.3945°
Eccentric anomaly
105.15602°
Mean motion
3.09272 °/min
Orbital period
116.4 mins
BSTAR
0.0012238
Loading maneuver chart data...
Computing Atmospheric mass density...
Loading historical data...
Loading historical data...
Loading historical data...
Loading historical data...
Loading historical data...
Loading historical data...
Loading historical data...

Documentation

Showing up to 5 results
|